Time,TemperatureF,DewpointF,PressureIn,WindDirection,WindDirectionDegrees,WindSpeedMPH,WindSpeedGustMPH,Humidity,HourlyPrecipIn,Conditions,Clouds,dailyrainin,SoftwareType,DateUTC
2013-10-03 00:01:00,63.1,56.8,29.81,North,-999,-999.0,-999.0,80,-99.99,,,-99.99,meteohub,2013-10-03 04:01:00,
2013-10-03 00:02:00,63.1,56.8,29.81,North,-999,-999.0,-999.0,80,-99.99,,,-99.99,meteohub,2013-10-03 04:02:00,
2013-10-03 00:03:00,63.1,56.8,29.81,North,-999,-999.0,-999.0,80,-99.99,,,-99.99,meteohub,2013-10-03 04:03:00,
2013-10-03 00:09:00,63.1,56.8,29.81,North,-999,-999.0,-999.0,80,-99.99,,,-99.99,meteohub,2013-10-03 04:09:00,
2013-10-03 00:14:00,63.1,57.2,29.81,North,-999,-999.0,-999.0,81,-99.99,,,-99.99,meteohub,2013-10-03 04:14:00,
2013-10-03 00:19:00,63.0,57.0,29.81,North,-999,-999.0,-999.0,81,-99.99,,,-99.99,meteohub,2013-10-03 04:19:00,
2013-10-03 00:24:00,63.0,57.0,29.81,North,-999,-999.0,-999.0,81,-99.99,,,-99.99,meteohub,2013-10-03 04:24:00,
2013-10-03 00:29:00,63.0,57.0,29.81,North,-999,-999.0,-999.0,81,-99.99,,,-99.99,meteohub,2013-10-03 04:29:00,
2013-10-03 00:35:00,62.8,56.8,29.81,North,-999,-999.0,-999.0,81,-99.99,,,-99.99,meteohub,2013-10-03 04:35:00,
2013-10-03 00:40:00,62.6,56.7,29.81,North,-999,-999.0,-999.0,81,-99.99,,,-99.99,meteohub,2013-10-03 04:40:00,
2013-10-03 00:45:00,62.4,56.8,29.81,North,-999,-999.0,-999.0,82,-99.99,,,-99.99,meteohub,2013-10-03 04:45:00,
2013-10-03 00:50:00,62.4,56.8,29.81,North,-999,-999.0,-999.0,82,-99.99,,,-99.99,meteohub,2013-10-03 04:50:00,
2013-10-03 00:55:00,62.2,56.7,29.81,North,-999,-999.0,-999.0,82,-99.99,,,-99.99,meteohub,2013-10-03 04:55:00,
2013-10-03 01:00:00,62.2,56.7,29.81,North,-999,-999.0,-999.0,82,-99.99,,,-99.99,meteohub,2013-10-03 05:00:00,
2013-10-03 01:06:00,62.2,56.7,29.81,North,-999,-999.0,-999.0,82,-99.99,,,-99.99,meteohub,2013-10-03 05:06:00,
2013-10-03 01:11:00,62.1,56.5,29.81,North,-999,-999.0,-999.0,82,-99.99,,,-99.99,meteohub,2013-10-03 05:11:00,
2013-10-03 01:16:00,62.1,56.8,29.81,North,-999,-999.0,-999.0,83,-99.99,,,-99.99,meteohub,2013-10-03 05:16:00,
2013-10-03 01:21:00,61.9,56.7,29.81,North,-999,-999.0,-999.0,83,-99.99,,,-99.99,meteohub,2013-10-03 05:21:00,
2013-10-03 01:26:00,61.9,56.7,29.81,North,-999,-999.0,-999.0,83,-99.99,,,-99.99,meteohub,2013-10-03 05:26:00,
2013-10-03 01:31:00,61.9,56.7,29.81,North,-999,-999.0,-999.0,83,-99.99,,,-99.99,meteohub,2013-10-03 05:31:00,
2013-10-03 01:37:00,61.9,56.7,29.81,North,-999,-999.0,-999.0,83,-99.99,,,-99.99,meteohub,2013-10-03 05:37:00,
2013-10-03 01:42:00,61.9,57.0,29.81,North,-999,-999.0,-999.0,84,-99.99,,,-99.99,meteohub,2013-10-03 05:42:00,
2013-10-03 01:47:00,61.7,56.8,29.81,North,-999,-999.0,-999.0,84,-99.99,,,-99.99,meteohub,2013-10-03 05:47:00,
2013-10-03 01:52:00,61.5,56.7,29.81,North,-999,-999.0,-999.0,84,-99.99,,,-99.99,meteohub,2013-10-03 05:52:00,
2013-10-03 01:57:00,61.7,56.8,29.81,North,-999,-999.0,-999.0,84,-99.99,,,-99.99,meteohub,2013-10-03 05:57:00,
2013-10-03 02:02:00,61.7,56.8,29.81,North,-999,-999.0,-999.0,84,-99.99,,,-99.99,meteohub,2013-10-03 06:02:00,
2013-10-03 02:07:00,61.5,56.7,29.81,North,-999,-999.0,-999.0,84,-99.99,,,-99.99,meteohub,2013-10-03 06:07:00,
2013-10-03 02:12:00,61.3,56.5,29.81,North,-999,-999.0,-999.0,84,-99.99,,,-99.99,meteohub,2013-10-03 06:12:00,
2013-10-03 02:17:00,61.5,56.7,29.81,North,-999,-999.0,-999.0,84,-99.99,,,-99.99,meteohub,2013-10-03 06:17:00,
2013-10-03 02:46:00,61.0,56.1,29.81,North,-999,-999.0,-999.0,84,-99.99,,,-99.99,meteohub,2013-10-03 06:46:00,
2013-10-03 02:52:00,61.0,56.5,29.81,North,-999,-999.0,-999.0,85,-99.99,,,-99.99,meteohub,2013-10-03 06:52:00,
2013-10-03 02:57:00,61.0,56.5,29.81,North,-999,-999.0,-999.0,85,-99.99,,,-99.99,meteohub,2013-10-03 06:57:00,
2013-10-03 03:02:00,61.0,56.5,29.81,North,-999,-999.0,-999.0,85,-99.99,,,-99.99,meteohub,2013-10-03 07:02:00,
2013-10-03 03:07:00,60.8,56.3,29.81,North,-999,-999.0,-999.0,85,-99.99,,,-99.99,meteohub,2013-10-03 07:07:00,
2013-10-03 03:12:00,60.8,56.3,29.81,North,-999,-999.0,-999.0,85,-99.99,,,-99.99,meteohub,2013-10-03 07:12:00,
2013-10-03 03:17:00,60.8,56.3,29.81,North,-999,-999.0,-999.0,85,-99.99,,,-99.99,meteohub,2013-10-03 07:17:00,
2013-10-03 03:22:00,60.6,56.5,29.81,North,-999,-999.0,-999.0,86,-99.99,,,-99.99,meteohub,2013-10-03 07:22:00,
2013-10-03 03:27:00,60.6,56.5,29.81,North,-999,-999.0,-999.0,86,-99.99,,,-99.99,meteohub,2013-10-03 07:27:00,
2013-10-03 03:32:00,60.6,56.5,29.81,North,-999,-999.0,-999.0,86,-99.99,,,-99.99,meteohub,2013-10-03 07:32:00,
2013-10-03 03:37:00,60.6,56.5,29.81,North,-999,-999.0,-999.0,86,-99.99,,,-99.99,meteohub,2013-10-03 07:37:00,
2013-10-03 03:42:00,60.4,56.3,29.81,North,-999,-999.0,-999.0,86,-99.99,,,-99.99,meteohub,2013-10-03 07:42:00,
2013-10-03 03:47:00,60.4,56.3,29.81,North,-999,-999.0,-999.0,86,-99.99,,,-99.99,meteohub,2013-10-03 07:47:00,
2013-10-03 03:52:00,60.3,56.1,29.78,North,-999,-999.0,-999.0,86,-99.99,,,-99.99,meteohub,2013-10-03 07:52:00,
2013-10-03 03:57:00,60.3,56.3,29.78,North,-999,-999.0,-999.0,87,-99.99,,,-99.99,meteohub,2013-10-03 07:57:00,
2013-10-03 04:02:00,60.3,56.3,29.78,North,-999,-999.0,-999.0,87,-99.99,,,-99.99,meteohub,2013-10-03 08:02:00,
2013-10-03 04:07:00,60.3,56.3,29.81,North,-999,-999.0,-999.0,87,-99.99,,,-99.99,meteohub,2013-10-03 08:07:00,
2013-10-03 04:12:00,60.3,56.3,29.81,North,-999,-999.0,-999.0,87,-99.99,,,-99.99,meteohub,2013-10-03 08:12:00,
2013-10-03 04:17:00,60.3,56.3,29.81,North,-999,-999.0,-999.0,87,-99.99,,,-99.99,meteohub,2013-10-03 08:17:00,
2013-10-03 04:22:00,60.3,56.3,29.81,North,-999,-999.0,-999.0,87,-99.99,,,-99.99,meteohub,2013-10-03 08:22:00,
2013-10-03 04:27:00,60.3,56.3,29.81,North,-999,-999.0,-999.0,87,-99.99,,,-99.99,meteohub,2013-10-03 08:27:00,
2013-10-03 04:32:00,60.3,56.3,29.81,North,-999,-999.0,-999.0,87,-99.99,,,-99.99,meteohub,2013-10-03 08:32:00,
2013-10-03 04:37:00,60.1,56.1,29.81,North,-999,-999.0,-999.0,87,-99.99,,,-99.99,meteohub,2013-10-03 08:37:00,
2013-10-03 04:42:00,60.1,56.1,29.81,North,-999,-999.0,-999.0,87,-99.99,,,-99.99,meteohub,2013-10-03 08:42:00,
2013-10-03 04:47:00,59.9,55.9,29.81,North,-999,-999.0,-999.0,87,-99.99,,,-99.99,meteohub,2013-10-03 08:47:00,
2013-10-03 04:52:00,59.9,55.9,29.81,North,-999,-999.0,-999.0,87,-99.99,,,-99.99,meteohub,2013-10-03 08:52:00,
2013-10-03 04:57:00,59.9,55.9,29.81,North,-999,-999.0,-999.0,87,-99.99,,,-99.99,meteohub,2013-10-03 08:57:00,
2013-10-03 05:02:00,59.9,56.3,29.81,North,-999,-999.0,-999.0,88,-99.99,,,-99.99,meteohub,2013-10-03 09:02:00,
2013-10-03 05:07:00,59.9,56.3,29.81,North,-999,-999.0,-999.0,88,-99.99,,,-99.99,meteohub,2013-10-03 09:07:00,
2013-10-03 05:12:00,59.9,55.9,29.81,North,-999,-999.0,-999.0,87,-99.99,,,-99.99,meteohub,2013-10-03 09:12:00,
2013-10-03 05:17:00,59.9,56.3,29.81,North,-999,-999.0,-999.0,88,-99.99,,,-99.99,meteohub,2013-10-03 09:17:00,
2013-10-03 05:22:00,59.9,56.3,29.81,North,-999,-999.0,-999.0,88,-99.99,,,-99.99,meteohub,2013-10-03 09:22:00,
2013-10-03 05:27:00,59.9,56.3,29.81,North,-999,-999.0,-999.0,88,-99.99,,,-99.99,meteohub,2013-10-03 09:27:00,
2013-10-03 05:32:00,59.9,56.3,29.81,North,-999,-999.0,-999.0,88,-99.99,,,-99.99,meteohub,2013-10-03 09:32:00,
2013-10-03 05:37:00,59.9,56.3,29.81,North,-999,-999.0,-999.0,88,-99.99,,,-99.99,meteohub,2013-10-03 09:37:00,
2013-10-03 05:42:00,59.9,56.3,29.81,North,-999,-999.0,-999.0,88,-99.99,,,-99.99,meteohub,2013-10-03 09:42:00,
2013-10-03 05:47:00,59.9,56.3,29.81,North,-999,-999.0,-999.0,88,-99.99,,,-99.99,meteohub,2013-10-03 09:47:00,
2013-10-03 05:52:00,59.9,56.3,29.81,North,-999,-999.0,-999.0,88,-99.99,,,-99.99,meteohub,2013-10-03 09:52:00,
2013-10-03 05:57:00,59.9,56.3,29.81,North,-999,-999.0,-999.0,88,-99.99,,,-99.99,meteohub,2013-10-03 09:57:00,
2013-10-03 06:02:00,59.9,56.3,29.81,North,-999,-999.0,-999.0,88,-99.99,,,-99.99,meteohub,2013-10-03 10:02:00,
2013-10-03 06:07:00,59.9,56.3,29.81,North,-999,-999.0,-999.0,88,-99.99,,,-99.99,meteohub,2013-10-03 10:07:00,
2013-10-03 06:12:00,59.9,56.3,29.81,North,-999,-999.0,-999.0,88,-99.99,,,-99.99,meteohub,2013-10-03 10:12:00,
2013-10-03 06:17:00,59.9,56.7,29.81,North,-999,-999.0,-999.0,89,-99.99,,,-99.99,meteohub,2013-10-03 10:17:00,
2013-10-03 06:22:00,59.9,56.7,29.81,North,-999,-999.0,-999.0,89,-99.99,,,-99.99,meteohub,2013-10-03 10:22:00,
2013-10-03 06:27:00,60.1,56.8,29.81,North,-999,-999.0,-999.0,89,-99.99,,,-99.99,meteohub,2013-10-03 10:27:00,
2013-10-03 06:32:00,60.1,56.8,29.81,North,-999,-999.0,-999.0,89,-99.99,,,-99.99,meteohub,2013-10-03 10:32:00,
2013-10-03 06:37:00,60.1,56.8,29.81,North,-999,-999.0,-999.0,89,-99.99,,,-99.99,meteohub,2013-10-03 10:37:00,
2013-10-03 06:42:00,60.1,56.8,29.81,North,-999,-999.0,-999.0,89,-99.99,,,-99.99,meteohub,2013-10-03 10:42:00,
2013-10-03 06:47:00,60.1,56.8,29.81,North,-999,-999.0,-999.0,89,-99.99,,,-99.99,meteohub,2013-10-03 10:47:00,
2013-10-03 06:52:00,59.9,56.7,29.81,North,-999,-999.0,-999.0,89,-99.99,,,-99.99,meteohub,2013-10-03 10:52:00,
2013-10-03 06:57:00,59.9,56.7,29.81,North,-999,-999.0,-999.0,89,-99.99,,,-99.99,meteohub,2013-10-03 10:57:00,
2013-10-03 07:02:00,59.9,56.7,29.81,North,-999,-999.0,-999.0,89,-99.99,,,-99.99,meteohub,2013-10-03 11:02:00,
2013-10-03 07:07:00,59.9,56.7,29.81,North,-999,-999.0,-999.0,89,-99.99,,,-99.99,meteohub,2013-10-03 11:07:00,
2013-10-03 07:12:00,59.9,56.7,29.81,North,-999,-999.0,-999.0,89,-99.99,,,-99.99,meteohub,2013-10-03 11:12:00,
2013-10-03 07:17:00,59.7,56.5,29.81,North,-999,-999.0,-999.0,89,-99.99,,,-99.99,meteohub,2013-10-03 11:17:00,
2013-10-03 07:22:00,59.9,56.7,29.81,North,-999,-999.0,-999.0,89,-99.99,,,-99.99,meteohub,2013-10-03 11:22:00,
2013-10-03 07:27:00,59.9,56.7,29.81,North,-999,-999.0,-999.0,89,-99.99,,,-99.99,meteohub,2013-10-03 11:27:00,
2013-10-03 07:32:00,59.9,56.7,29.81,North,-999,-999.0,-999.0,89,-99.99,,,-99.99,meteohub,2013-10-03 11:32:00,
2013-10-03 07:37:00,59.9,56.7,29.81,North,-999,-999.0,-999.0,89,-99.99,,,-99.99,meteohub,2013-10-03 11:37:00,
2013-10-03 07:42:00,60.1,57.2,29.81,North,-999,-999.0,-999.0,90,-99.99,,,-99.99,meteohub,2013-10-03 11:42:00,
2013-10-03 07:47:00,60.1,57.2,29.81,North,-999,-999.0,-999.0,90,-99.99,,,-99.99,meteohub,2013-10-03 11:47:00,
2013-10-03 07:52:00,60.3,57.4,29.81,North,-999,-999.0,-999.0,90,-99.99,,,-99.99,meteohub,2013-10-03 11:52:00,
2013-10-03 07:57:00,60.4,57.7,29.81,North,-999,-999.0,-999.0,91,-99.99,,,-99.99,meteohub,2013-10-03 11:57:00,
2013-10-03 08:02:00,60.6,57.9,29.81,North,-999,-999.0,-999.0,91,-99.99,,,-99.99,meteohub,2013-10-03 12:02:00,
2013-10-03 08:07:00,60.8,58.1,29.81,North,-999,-999.0,-999.0,91,-99.99,,,-99.99,meteohub,2013-10-03 12:07:00,
2013-10-03 08:12:00,61.0,58.3,29.81,North,-999,-999.0,-999.0,91,-99.99,,,-99.99,meteohub,2013-10-03 12:12:00,
2013-10-03 08:17:00,61.2,58.5,29.81,North,-999,-999.0,-999.0,91,-99.99,,,-99.99,meteohub,2013-10-03 12:17:00,
2013-10-03 08:22:00,61.3,58.6,29.81,North,-999,-999.0,-999.0,91,-99.99,,,-99.99,meteohub,2013-10-03 12:22:00,
2013-10-03 08:27:00,61.5,58.8,29.81,North,-999,-999.0,-999.0,91,-99.99,,,-99.99,meteohub,2013-10-03 12:27:00,
2013-10-03 08:32:00,61.7,59.0,29.81,North,-999,-999.0,-999.0,91,-99.99,,,-99.99,meteohub,2013-10-03 12:32:00,
2013-10-03 08:37:00,61.9,59.2,29.84,North,-999,-999.0,-999.0,91,-99.99,,,-99.99,meteohub,2013-10-03 12:37:00,
2013-10-03 08:42:00,62.1,59.4,29.84,North,-999,-999.0,-999.0,91,-99.99,,,-99.99,meteohub,2013-10-03 12:42:00,
2013-10-03 08:47:00,62.4,59.7,29.84,North,-999,-999.0,-999.0,91,-99.99,,,-99.99,meteohub,2013-10-03 12:47:00,
2013-10-03 08:52:00,62.6,59.9,29.84,North,-999,-999.0,-999.0,91,-99.99,,,-99.99,meteohub,2013-10-03 12:52:00,
2013-10-03 08:57:00,63.0,60.3,29.84,North,-999,-999.0,-999.0,91,-99.99,,,-99.99,meteohub,2013-10-03 12:57:00,
2013-10-03 09:02:00,63.1,60.4,29.84,North,-999,-999.0,-999.0,91,-99.99,,,-99.99,meteohub,2013-10-03 13:02:00,
2013-10-03 09:07:00,63.5,60.8,29.84,North,-999,-999.0,-999.0,91,-99.99,,,-99.99,meteohub,2013-10-03 13:07:00,
2013-10-03 09:12:00,63.9,61.5,29.84,North,-999,-999.0,-999.0,92,-99.99,,,-99.99,meteohub,2013-10-03 13:12:00,
2013-10-03 09:17:00,64.4,61.7,29.84,North,-999,-999.0,-999.0,91,-99.99,,,-99.99,meteohub,2013-10-03 13:17:00,
2013-10-03 09:22:00,64.9,62.2,29.84,North,-999,-999.0,-999.0,91,-99.99,,,-99.99,meteohub,2013-10-03 13:22:00,
2013-10-03 09:27:00,65.5,62.4,29.84,North,-999,-999.0,-999.0,90,-99.99,,,-99.99,meteohub,2013-10-03 13:27:00,
2013-10-03 09:32:00,65.7,62.2,29.84,North,-999,-999.0,-999.0,89,-99.99,,,-99.99,meteohub,2013-10-03 13:32:00,
2013-10-03 09:37:00,66.2,62.8,29.84,North,-999,-999.0,-999.0,89,-99.99,,,-99.99,meteohub,2013-10-03 13:37:00,
2013-10-03 09:42:00,66.7,63.1,29.84,North,-999,-999.0,-999.0,88,-99.99,,,-99.99,meteohub,2013-10-03 13:42:00,
2013-10-03 09:47:00,67.1,62.8,29.84,North,-999,-999.0,-999.0,86,-99.99,,,-99.99,meteohub,2013-10-03 13:47:00,
2013-10-03 09:52:00,67.6,63.0,29.84,North,-999,-999.0,-999.0,85,-99.99,,,-99.99,meteohub,2013-10-03 13:52:00,
2013-10-03 09:57:00,68.2,63.1,29.84,North,-999,-999.0,-999.0,84,-99.99,,,-99.99,meteohub,2013-10-03 13:57:00,
2013-10-03 10:02:00,68.5,63.1,29.84,North,-999,-999.0,-999.0,83,-99.99,,,-99.99,meteohub,2013-10-03 14:02:00,
2013-10-03 10:07:00,69.3,63.5,29.84,North,-999,-999.0,-999.0,82,-99.99,,,-99.99,meteohub,2013-10-03 14:07:00,
2013-10-03 10:12:00,69.6,63.5,29.84,North,-999,-999.0,-999.0,81,-99.99,,,-99.99,meteohub,2013-10-03 14:12:00,
2013-10-03 10:17:00,70.0,63.5,29.84,North,-999,-999.0,-999.0,80,-99.99,,,-99.99,meteohub,2013-10-03 14:17:00,
2013-10-03 10:22:00,70.2,63.3,29.84,North,-999,-999.0,-999.0,79,-99.99,,,-99.99,meteohub,2013-10-03 14:22:00,
2013-10-03 10:27:00,70.3,63.5,29.84,North,-999,-999.0,-999.0,79,-99.99,,,-99.99,meteohub,2013-10-03 14:27:00,
2013-10-03 10:32:00,70.7,63.5,29.84,North,-999,-999.0,-999.0,78,-99.99,,,-99.99,meteohub,2013-10-03 14:32:00,
2013-10-03 10:37:00,71.2,64.0,29.84,North,-999,-999.0,-999.0,78,-99.99,,,-99.99,meteohub,2013-10-03 14:37:00,
2013-10-03 10:42:00,71.8,64.2,29.84,North,-999,-999.0,-999.0,77,-99.99,,,-99.99,meteohub,2013-10-03 14:42:00,
2013-10-03 10:47:00,71.8,63.9,29.84,North,-999,-999.0,-999.0,76,-99.99,,,-99.99,meteohub,2013-10-03 14:47:00,
2013-10-03 10:52:00,72.1,63.3,29.84,North,-999,-999.0,-999.0,74,-99.99,,,-99.99,meteohub,2013-10-03 14:52:00,
2013-10-03 10:57:00,72.7,63.5,29.84,North,-999,-999.0,-999.0,73,-99.99,,,-99.99,meteohub,2013-10-03 14:57:00,
2013-10-03 11:02:00,73.2,63.3,29.84,North,-999,-999.0,-999.0,71,-99.99,,,-99.99,meteohub,2013-10-03 15:02:00,
2013-10-03 11:07:00,73.4,63.0,29.84,North,-999,-999.0,-999.0,70,-99.99,,,-99.99,meteohub,2013-10-03 15:07:00,
2013-10-03 11:12:00,73.8,63.0,29.84,North,-999,-999.0,-999.0,69,-99.99,,,-99.99,meteohub,2013-10-03 15:12:00,
2013-10-03 11:17:00,74.1,63.3,29.84,North,-999,-999.0,-999.0,69,-99.99,,,-99.99,meteohub,2013-10-03 15:17:00,
2013-10-03 11:22:00,74.3,63.1,29.84,North,-999,-999.0,-999.0,68,-99.99,,,-99.99,meteohub,2013-10-03 15:22:00,
2013-10-03 11:27:00,74.7,63.3,29.84,North,-999,-999.0,-999.0,68,-99.99,,,-99.99,meteohub,2013-10-03 15:27:00,
2013-10-03 11:32:00,75.2,63.1,29.84,North,-999,-999.0,-999.0,66,-99.99,,,-99.99,meteohub,2013-10-03 15:32:00,
2013-10-03 11:37:00,75.6,63.0,29.84,North,-999,-999.0,-999.0,65,-99.99,,,-99.99,meteohub,2013-10-03 15:37:00,
2013-10-03 11:42:00,76.1,62.1,29.84,North,-999,-999.0,-999.0,62,-99.99,,,-99.99,meteohub,2013-10-03 15:42:00,
2013-10-03 11:47:00,77.0,61.2,29.84,North,-999,-999.0,-999.0,58,-99.99,,,-99.99,meteohub,2013-10-03 15:47:00,
2013-10-03 11:52:00,77.2,61.7,29.84,North,-999,-999.0,-999.0,59,-99.99,,,-99.99,meteohub,2013-10-03 15:52:00,
2013-10-03 11:57:00,77.0,60.6,29.84,North,-999,-999.0,-999.0,57,-99.99,,,-99.99,meteohub,2013-10-03 15:57:00,
2013-10-03 12:02:00,77.0,60.1,29.84,North,-999,-999.0,-999.0,56,-99.99,,,-99.99,meteohub,2013-10-03 16:02:00,
2013-10-03 12:07:00,77.2,60.8,29.81,North,-999,-999.0,-999.0,57,-99.99,,,-99.99,meteohub,2013-10-03 16:07:00,
2013-10-03 12:12:00,77.9,61.0,29.81,North,-999,-999.0,-999.0,56,-99.99,,,-99.99,meteohub,2013-10-03 16:12:00,
2013-10-03 12:17:00,79.5,58.1,29.81,North,-999,-999.0,-999.0,48,-99.99,,,-99.99,meteohub,2013-10-03 16:17:00,
2013-10-03 12:22:00,80.6,58.5,29.81,North,-999,-999.0,-999.0,47,-99.99,,,-99.99,meteohub,2013-10-03 16:22:00,
2013-10-03 12:27:00,80.8,55.6,29.81,North,-999,-999.0,-999.0,42,-99.99,,,-99.99,meteohub,2013-10-03 16:27:00,
2013-10-03 12:32:00,81.7,58.3,29.81,North,-999,-999.0,-999.0,45,-99.99,,,-99.99,meteohub,2013-10-03 16:32:00,
2013-10-03 12:37:00,82.2,58.8,29.84,North,-999,-999.0,-999.0,45,-99.99,,,-99.99,meteohub,2013-10-03 16:37:00,
2013-10-03 12:42:00,82.6,59.2,29.84,North,-999,-999.0,-999.0,45,-99.99,,,-99.99,meteohub,2013-10-03 16:42:00,
2013-10-03 12:47:00,83.3,59.2,29.84,North,-999,-999.0,-999.0,44,-99.99,,,-99.99,meteohub,2013-10-03 16:47:00,
2013-10-03 12:52:00,84.0,59.7,29.81,North,-999,-999.0,-999.0,44,-99.99,,,-99.99,meteohub,2013-10-03 16:52:00,
2013-10-03 12:57:00,84.0,59.7,29.81,North,-999,-999.0,-999.0,44,-99.99,,,-99.99,meteohub,2013-10-03 16:57:00,
2013-10-03 13:02:00,84.4,58.1,29.81,North,-999,-999.0,-999.0,41,-99.99,,,-99.99,meteohub,2013-10-03 17:02:00,
2013-10-03 13:07:00,84.7,57.7,29.81,North,-999,-999.0,-999.0,40,-99.99,,,-99.99,meteohub,2013-10-03 17:07:00,
2013-10-03 13:12:00,85.3,58.3,29.81,North,-999,-999.0,-999.0,40,-99.99,,,-99.99,meteohub,2013-10-03 17:12:00,
2013-10-03 13:17:00,85.5,57.7,29.81,North,-999,-999.0,-999.0,39,-99.99,,,-99.99,meteohub,2013-10-03 17:17:00,
2013-10-03 13:22:00,84.9,56.5,29.81,North,-999,-999.0,-999.0,38,-99.99,,,-99.99,meteohub,2013-10-03 17:22:00,
2013-10-03 13:27:00,84.7,56.3,29.81,North,-999,-999.0,-999.0,38,-99.99,,,-99.99,meteohub,2013-10-03 17:27:00,
2013-10-03 13:32:00,84.4,55.2,29.81,North,-999,-999.0,-999.0,37,-99.99,,,-99.99,meteohub,2013-10-03 17:32:00,
2013-10-03 13:37:00,84.0,56.5,29.81,North,-999,-999.0,-999.0,39,-99.99,,,-99.99,meteohub,2013-10-03 17:37:00,
2013-10-03 13:42:00,84.6,57.6,29.81,North,-999,-999.0,-999.0,40,-99.99,,,-99.99,meteohub,2013-10-03 17:42:00,
2013-10-03 13:47:00,84.9,57.2,29.81,North,-999,-999.0,-999.0,39,-99.99,,,-99.99,meteohub,2013-10-03 17:47:00,
2013-10-03 13:52:00,85.8,58.6,29.81,North,-999,-999.0,-999.0,40,-99.99,,,-99.99,meteohub,2013-10-03 17:52:00,
2013-10-03 13:57:00,85.6,57.9,29.81,North,-999,-999.0,-999.0,39,-99.99,,,-99.99,meteohub,2013-10-03 17:57:00,
2013-10-03 14:02:00,82.9,53.2,29.81,North,-999,-999.0,-999.0,36,-99.99,,,-99.99,meteohub,2013-10-03 18:02:00,
2013-10-03 14:08:00,83.5,55.9,29.81,North,-999,-999.0,-999.0,39,-99.99,,,-99.99,meteohub,2013-10-03 18:08:00,
2013-10-03 14:14:00,84.2,55.8,29.81,North,-999,-999.0,-999.0,38,-99.99,,,-99.99,meteohub,2013-10-03 18:14:00,
2013-10-03 14:19:00,83.5,56.7,29.81,North,-999,-999.0,-999.0,40,-99.99,,,-99.99,meteohub,2013-10-03 18:19:00,
2013-10-03 14:24:00,82.6,55.8,29.81,North,-999,-999.0,-999.0,40,-99.99,,,-99.99,meteohub,2013-10-03 18:24:00,
2013-10-03 14:29:00,82.6,55.0,29.81,North,-999,-999.0,-999.0,39,-99.99,,,-99.99,meteohub,2013-10-03 18:29:00,
2013-10-03 14:34:00,82.6,55.8,29.81,North,-999,-999.0,-999.0,40,-99.99,,,-99.99,meteohub,2013-10-03 18:34:00,
2013-10-03 14:39:00,83.1,57.0,29.81,North,-999,-999.0,-999.0,41,-99.99,,,-99.99,meteohub,2013-10-03 18:39:00,
2013-10-03 14:44:00,83.5,57.4,29.81,North,-999,-999.0,-999.0,41,-99.99,,,-99.99,meteohub,2013-10-03 18:44:00,
2013-10-03 14:50:00,82.6,55.8,29.81,North,-999,-999.0,-999.0,40,-99.99,,,-99.99,meteohub,2013-10-03 18:50:00,
2013-10-03 14:55:00,81.9,55.2,29.81,North,-999,-999.0,-999.0,40,-99.99,,,-99.99,meteohub,2013-10-03 18:55:00,
2013-10-03 15:00:00,82.2,56.1,29.81,North,-999,-999.0,-999.0,41,-99.99,,,-99.99,meteohub,2013-10-03 19:00:00,
2013-10-03 15:05:00,82.0,55.9,29.81,North,-999,-999.0,-999.0,41,-99.99,,,-99.99,meteohub,2013-10-03 19:05:00,
2013-10-03 15:10:00,82.2,56.1,29.81,North,-999,-999.0,-999.0,41,-99.99,,,-99.99,meteohub,2013-10-03 19:10:00,
2013-10-03 15:15:00,82.9,56.8,29.81,North,-999,-999.0,-999.0,41,-99.99,,,-99.99,meteohub,2013-10-03 19:15:00,
2013-10-03 15:20:00,83.1,57.7,29.81,North,-999,-999.0,-999.0,42,-99.99,,,-99.99,meteohub,2013-10-03 19:20:00,
2013-10-03 15:26:00,83.5,57.9,29.81,North,-999,-999.0,-999.0,42,-99.99,,,-99.99,meteohub,2013-10-03 19:26:00,
2013-10-03 15:31:00,83.5,57.4,29.81,North,-999,-999.0,-999.0,41,-99.99,,,-99.99,meteohub,2013-10-03 19:31:00,
2013-10-03 15:36:00,83.7,57.4,29.81,North,-999,-999.0,-999.0,41,-99.99,,,-99.99,meteohub,2013-10-03 19:36:00,
2013-10-03 15:41:00,83.1,56.3,29.81,North,-999,-999.0,-999.0,40,-99.99,,,-99.99,meteohub,2013-10-03 19:41:00,
2013-10-03 15:46:00,82.4,56.3,29.81,North,-999,-999.0,-999.0,41,-99.99,,,-99.99,meteohub,2013-10-03 19:46:00,
2013-10-03 15:51:00,82.4,56.3,29.78,North,-999,-999.0,-999.0,41,-99.99,,,-99.99,meteohub,2013-10-03 19:51:00,
2013-10-03 15:56:00,82.4,57.0,29.78,North,-999,-999.0,-999.0,42,-99.99,,,-99.99,meteohub,2013-10-03 19:56:00,
2013-10-03 16:01:00,82.8,57.4,29.78,North,-999,-999.0,-999.0,42,-99.99,,,-99.99,meteohub,2013-10-03 20:01:00,
2013-10-03 16:06:00,82.2,56.8,29.78,North,-999,-999.0,-999.0,42,-99.99,,,-99.99,meteohub,2013-10-03 20:06:00,
2013-10-03 16:12:00,81.7,57.0,29.78,North,-999,-999.0,-999.0,43,-99.99,,,-99.99,meteohub,2013-10-03 20:12:00,
2013-10-03 16:17:00,81.5,56.8,29.78,North,-999,-999.0,-999.0,43,-99.99,,,-99.99,meteohub,2013-10-03 20:17:00,
2013-10-03 16:22:00,81.3,56.7,29.78,North,-999,-999.0,-999.0,43,-99.99,,,-99.99,meteohub,2013-10-03 20:22:00,
2013-10-03 16:27:00,81.3,57.4,29.78,North,-999,-999.0,-999.0,44,-99.99,,,-99.99,meteohub,2013-10-03 20:27:00,
2013-10-03 16:32:00,82.0,56.7,29.78,North,-999,-999.0,-999.0,42,-99.99,,,-99.99,meteohub,2013-10-03 20:32:00,
2013-10-03 16:37:00,82.2,56.8,29.78,North,-999,-999.0,-999.0,42,-99.99,,,-99.99,meteohub,2013-10-03 20:37:00,
2013-10-03 16:42:00,82.4,56.3,29.78,North,-999,-999.0,-999.0,41,-99.99,,,-99.99,meteohub,2013-10-03 20:42:00,
2013-10-03 16:47:00,82.6,56.5,29.78,North,-999,-999.0,-999.0,41,-99.99,,,-99.99,meteohub,2013-10-03 20:47:00,
2013-10-03 16:52:00,82.4,56.3,29.78,North,-999,-999.0,-999.0,41,-99.99,,,-99.99,meteohub,2013-10-03 20:52:00,
2013-10-03 16:57:00,82.0,56.7,29.78,North,-999,-999.0,-999.0,42,-99.99,,,-99.99,meteohub,2013-10-03 20:57:00,
2013-10-03 17:02:00,81.5,56.1,29.78,North,-999,-999.0,-999.0,42,-99.99,,,-99.99,meteohub,2013-10-03 21:02:00,
2013-10-03 17:07:00,81.5,56.1,29.78,North,-999,-999.0,-999.0,42,-99.99,,,-99.99,meteohub,2013-10-03 21:07:00,
2013-10-03 17:12:00,81.5,56.8,29.78,North,-999,-999.0,-999.0,43,-99.99,,,-99.99,meteohub,2013-10-03 21:12:00,
2013-10-03 17:17:00,81.3,56.7,29.78,North,-999,-999.0,-999.0,43,-99.99,,,-99.99,meteohub,2013-10-03 21:17:00,
2013-10-03 17:22:00,81.0,57.0,29.78,North,-999,-999.0,-999.0,44,-99.99,,,-99.99,meteohub,2013-10-03 21:22:00,
2013-10-03 17:27:00,80.8,56.1,29.78,North,-999,-999.0,-999.0,43,-99.99,,,-99.99,meteohub,2013-10-03 21:27:00,
2013-10-03 17:32:00,80.8,56.8,29.78,North,-999,-999.0,-999.0,44,-99.99,,,-99.99,meteohub,2013-10-03 21:32:00,
2013-10-03 17:37:00,80.6,56.7,29.78,North,-999,-999.0,-999.0,44,-99.99,,,-99.99,meteohub,2013-10-03 21:37:00,
2013-10-03 17:42:00,80.6,56.7,29.78,North,-999,-999.0,-999.0,44,-99.99,,,-99.99,meteohub,2013-10-03 21:42:00,
2013-10-03 17:47:00,80.6,56.7,29.78,North,-999,-999.0,-999.0,44,-99.99,,,-99.99,meteohub,2013-10-03 21:47:00,
2013-10-03 17:52:00,80.1,57.4,29.81,North,-999,-999.0,-999.0,46,-99.99,,,-99.99,meteohub,2013-10-03 21:52:00,
2013-10-03 17:57:00,79.7,57.0,29.81,North,-999,-999.0,-999.0,46,-99.99,,,-99.99,meteohub,2013-10-03 21:57:00,
2013-10-03 18:02:00,79.3,57.4,29.81,North,-999,-999.0,-999.0,47,-99.99,,,-99.99,meteohub,2013-10-03 22:02:00,
2013-10-03 18:07:00,79.2,57.2,29.81,North,-999,-999.0,-999.0,47,-99.99,,,-99.99,meteohub,2013-10-03 22:07:00,
2013-10-03 18:12:00,79.0,57.6,29.81,North,-999,-999.0,-999.0,48,-99.99,,,-99.99,meteohub,2013-10-03 22:12:00,
2013-10-03 18:17:00,78.6,57.9,29.81,North,-999,-999.0,-999.0,49,-99.99,,,-99.99,meteohub,2013-10-03 22:17:00,
2013-10-03 18:22:00,78.4,57.7,29.81,North,-999,-999.0,-999.0,49,-99.99,,,-99.99,meteohub,2013-10-03 22:22:00,
2013-10-03 18:27:00,78.3,57.6,29.81,North,-999,-999.0,-999.0,49,-99.99,,,-99.99,meteohub,2013-10-03 22:27:00,
2013-10-03 18:32:00,77.7,58.1,29.81,North,-999,-999.0,-999.0,51,-99.99,,,-99.99,meteohub,2013-10-03 22:32:00,
2013-10-03 18:37:00,77.4,57.7,29.81,North,-999,-999.0,-999.0,51,-99.99,,,-99.99,meteohub,2013-10-03 22:37:00,
2013-10-03 18:42:00,77.0,58.6,29.81,North,-999,-999.0,-999.0,53,-99.99,,,-99.99,meteohub,2013-10-03 22:42:00,
2013-10-03 18:47:00,76.6,58.3,29.81,North,-999,-999.0,-999.0,53,-99.99,,,-99.99,meteohub,2013-10-03 22:47:00,
2013-10-03 18:52:00,76.3,58.5,29.81,North,-999,-999.0,-999.0,54,-99.99,,,-99.99,meteohub,2013-10-03 22:52:00,
2013-10-03 18:57:00,75.9,58.1,29.81,North,-999,-999.0,-999.0,54,-99.99,,,-99.99,meteohub,2013-10-03 22:57:00,
2013-10-03 19:02:00,75.6,58.3,29.81,North,-999,-999.0,-999.0,55,-99.99,,,-99.99,meteohub,2013-10-03 23:02:00,
2013-10-03 19:07:00,75.4,58.1,29.81,North,-999,-999.0,-999.0,55,-99.99,,,-99.99,meteohub,2013-10-03 23:07:00,
2013-10-03 19:12:00,75.0,58.3,29.81,North,-999,-999.0,-999.0,56,-99.99,,,-99.99,meteohub,2013-10-03 23:12:00,
2013-10-03 19:17:00,74.7,57.9,29.81,North,-999,-999.0,-999.0,56,-99.99,,,-99.99,meteohub,2013-10-03 23:17:00,
2013-10-03 19:22:00,74.3,58.1,29.81,North,-999,-999.0,-999.0,57,-99.99,,,-99.99,meteohub,2013-10-03 23:22:00,
2013-10-03 19:27:00,73.9,57.7,29.81,North,-999,-999.0,-999.0,57,-99.99,,,-99.99,meteohub,2013-10-03 23:27:00,
2013-10-03 19:32:00,73.6,57.9,29.81,North,-999,-999.0,-999.0,58,-99.99,,,-99.99,meteohub,2013-10-03 23:32:00,
2013-10-03 19:37:00,73.2,58.1,29.81,North,-999,-999.0,-999.0,59,-99.99,,,-99.99,meteohub,2013-10-03 23:37:00,
2013-10-03 19:42:00,73.0,58.3,29.81,North,-999,-999.0,-999.0,60,-99.99,,,-99.99,meteohub,2013-10-03 23:42:00,
2013-10-03 19:47:00,72.7,58.5,29.81,North,-999,-999.0,-999.0,61,-99.99,,,-99.99,meteohub,2013-10-03 23:47:00,
2013-10-03 19:52:00,72.5,58.3,29.81,North,-999,-999.0,-999.0,61,-99.99,,,-99.99,meteohub,2013-10-03 23:52:00,
2013-10-03 19:57:00,72.1,58.5,29.81,North,-999,-999.0,-999.0,62,-99.99,,,-99.99,meteohub,2013-10-03 23:57:00,
2013-10-03 20:02:00,72.0,58.3,29.81,North,-999,-999.0,-999.0,62,-99.99,,,-99.99,meteohub,2013-10-04 00:02:00,
2013-10-03 20:07:00,71.8,58.5,29.81,North,-999,-999.0,-999.0,63,-99.99,,,-99.99,meteohub,2013-10-04 00:07:00,
2013-10-03 20:12:00,71.4,58.6,29.81,North,-999,-999.0,-999.0,64,-99.99,,,-99.99,meteohub,2013-10-04 00:12:00,
2013-10-03 20:17:00,71.2,58.8,29.81,North,-999,-999.0,-999.0,65,-99.99,,,-99.99,meteohub,2013-10-04 00:17:00,
2013-10-03 20:22:00,71.1,58.6,29.81,North,-999,-999.0,-999.0,65,-99.99,,,-99.99,meteohub,2013-10-04 00:22:00,
2013-10-03 20:27:00,70.9,59.0,29.81,North,-999,-999.0,-999.0,66,-99.99,,,-99.99,meteohub,2013-10-04 00:27:00,
2013-10-03 20:32:00,70.7,58.8,29.81,North,-999,-999.0,-999.0,66,-99.99,,,-99.99,meteohub,2013-10-04 00:32:00,
2013-10-03 20:37:00,70.5,59.0,29.81,North,-999,-999.0,-999.0,67,-99.99,,,-99.99,meteohub,2013-10-04 00:37:00,
2013-10-03 20:42:00,70.5,59.0,29.81,North,-999,-999.0,-999.0,67,-99.99,,,-99.99,meteohub,2013-10-04 00:42:00,
2013-10-03 20:47:00,70.3,59.4,29.81,North,-999,-999.0,-999.0,68,-99.99,,,-99.99,meteohub,2013-10-04 00:47:00,
2013-10-03 20:53:00,70.2,59.2,29.81,North,-999,-999.0,-999.0,68,-99.99,,,-99.99,meteohub,2013-10-04 00:53:00,
2013-10-03 20:58:00,70.0,59.4,29.81,North,-999,-999.0,-999.0,69,-99.99,,,-99.99,meteohub,2013-10-04 00:58:00,
2013-10-03 21:03:00,69.8,59.2,29.81,North,-999,-999.0,-999.0,69,-99.99,,,-99.99,meteohub,2013-10-04 01:03:00,
2013-10-03 21:08:00,69.8,59.2,29.81,North,-999,-999.0,-999.0,69,-99.99,,,-99.99,meteohub,2013-10-04 01:08:00,
2013-10-03 21:13:00,69.6,59.4,29.81,North,-999,-999.0,-999.0,70,-99.99,,,-99.99,meteohub,2013-10-04 01:13:00,
2013-10-03 21:19:00,69.4,59.7,29.81,North,-999,-999.0,-999.0,71,-99.99,,,-99.99,meteohub,2013-10-04 01:19:00,
2013-10-03 21:24:00,69.3,59.9,29.81,North,-999,-999.0,-999.0,72,-99.99,,,-99.99,meteohub,2013-10-04 01:24:00,
2013-10-03 21:29:00,69.3,59.9,29.81,North,-999,-999.0,-999.0,72,-99.99,,,-99.99,meteohub,2013-10-04 01:29:00,
2013-10-03 21:34:00,69.3,59.9,29.81,North,-999,-999.0,-999.0,72,-99.99,,,-99.99,meteohub,2013-10-04 01:34:00,
2013-10-03 21:39:00,69.3,59.9,29.81,North,-999,-999.0,-999.0,72,-99.99,,,-99.99,meteohub,2013-10-04 01:39:00,
2013-10-03 21:45:00,69.3,60.3,29.81,North,-999,-999.0,-999.0,73,-99.99,,,-99.99,meteohub,2013-10-04 01:45:00,
2013-10-03 21:50:00,69.4,60.1,29.81,North,-999,-999.0,-999.0,72,-99.99,,,-99.99,meteohub,2013-10-04 01:50:00,
2013-10-03 21:55:00,69.4,60.1,29.81,North,-999,-999.0,-999.0,72,-99.99,,,-99.99,meteohub,2013-10-04 01:55:00,
2013-10-03 22:00:00,69.6,60.3,29.81,North,-999,-999.0,-999.0,72,-99.99,,,-99.99,meteohub,2013-10-04 02:00:00,
2013-10-03 22:05:00,70.2,60.3,29.81,North,-999,-999.0,-999.0,71,-99.99,,,-99.99,meteohub,2013-10-04 02:05:00,
2013-10-03 22:10:00,70.3,60.4,29.81,North,-999,-999.0,-999.0,71,-99.99,,,-99.99,meteohub,2013-10-04 02:10:00,
2013-10-03 22:16:00,71.1,60.4,29.81,North,-999,-999.0,-999.0,69,-99.99,,,-99.99,meteohub,2013-10-04 02:16:00,
2013-10-03 22:21:00,71.4,60.3,29.81,North,-999,-999.0,-999.0,68,-99.99,,,-99.99,meteohub,2013-10-04 02:21:00,
2013-10-03 22:26:00,71.4,60.3,29.81,North,-999,-999.0,-999.0,68,-99.99,,,-99.99,meteohub,2013-10-04 02:26:00,
2013-10-03 22:31:00,71.8,60.3,29.81,North,-999,-999.0,-999.0,67,-99.99,,,-99.99,meteohub,2013-10-04 02:31:00,
2013-10-03 22:36:00,72.0,59.9,29.81,North,-999,-999.0,-999.0,66,-99.99,,,-99.99,meteohub,2013-10-04 02:36:00,
2013-10-03 22:42:00,72.0,59.5,29.81,North,-999,-999.0,-999.0,65,-99.99,,,-99.99,meteohub,2013-10-04 02:42:00,
2013-10-03 22:47:00,72.0,59.5,29.81,North,-999,-999.0,-999.0,65,-99.99,,,-99.99,meteohub,2013-10-04 02:47:00,
2013-10-03 22:52:00,72.0,59.5,29.81,North,-999,-999.0,-999.0,65,-99.99,,,-99.99,meteohub,2013-10-04 02:52:00,
2013-10-03 22:57:00,72.0,59.5,29.81,North,-999,-999.0,-999.0,65,-99.99,,,-99.99,meteohub,2013-10-04 02:57:00,
2013-10-03 23:02:00,72.0,59.2,29.81,North,-999,-999.0,-999.0,64,-99.99,,,-99.99,meteohub,2013-10-04 03:02:00,
2013-10-03 23:07:00,72.0,59.2,29.81,North,-999,-999.0,-999.0,64,-99.99,,,-99.99,meteohub,2013-10-04 03:07:00,
2013-10-03 23:12:00,72.0,59.2,29.81,North,-999,-999.0,-999.0,64,-99.99,,,-99.99,meteohub,2013-10-04 03:12:00,
2013-10-03 23:17:00,71.8,59.0,29.81,North,-999,-999.0,-999.0,64,-99.99,,,-99.99,meteohub,2013-10-04 03:17:00,
2013-10-03 23:22:00,71.6,59.2,29.81,North,-999,-999.0,-999.0,65,-99.99,,,-99.99,meteohub,2013-10-04 03:22:00,
2013-10-03 23:27:00,71.6,59.2,29.81,North,-999,-999.0,-999.0,65,-99.99,,,-99.99,meteohub,2013-10-04 03:27:00,
2013-10-03 23:32:00,71.4,59.0,29.81,North,-999,-999.0,-999.0,65,-99.99,,,-99.99,meteohub,2013-10-04 03:32:00,
2013-10-03 23:37:00,71.2,58.8,29.81,North,-999,-999.0,-999.0,65,-99.99,,,-99.99,meteohub,2013-10-04 03:37:00,
2013-10-03 23:42:00,71.2,58.8,29.81,North,-999,-999.0,-999.0,65,-99.99,,,-99.99,meteohub,2013-10-04 03:42:00,
2013-10-03 23:47:00,71.1,59.2,29.81,North,-999,-999.0,-999.0,66,-99.99,,,-99.99,meteohub,2013-10-04 03:47:00,
2013-10-03 23:52:00,70.9,59.0,29.81,North,-999,-999.0,-999.0,66,-99.99,,,-99.99,meteohub,2013-10-04 03:52:00,
2013-10-03 23:57:00,70.7,58.8,29.81,North,-999,-999.0,-999.0,66,-99.99,,,-99.99,meteohub,2013-10-04 03:57:00,